San Bernardino, CA

12:50 AM PST on December 10, 2019 (GMT -0800)
San Bernardino International

Weather History for KSBD - May, 2019

Change the Weather History Date:

Friday, May 17, 2019

  Actual Average Record
Temperature  
Mean Temperature 62 °F -  
Max Temperature 71 °F 84 °F 91 °F (2014)
Min Temperature 53 °F 52 °F 48 °F (2011)
Degree Days  
Heating Degree Days 3    
Growing Degree Days 12 (Base 50)    
Moisture  
Dew Point 43 °F    
Average Humidity 56    
Maximum Humidity 76    
Minimum Humidity 31    
Precipitation  
Precipitation 0.00 in - - ()
Sea Level Pressure  
Sea Level Pressure 29.98 in    
Wind  
Wind Speed 2 mph (SW)    
Max Wind Speed 13 mph    
Max Gust Speed 18 mph    
Visibility 9 miles    
Events      
Averages and records for this station are not official NWS values.
T = Trace of Precipitation, MM = Missing Value Source: NWS Daily Summary

Daily Weather History Graph

Daily Weather History Graph

Search for Another Location

Airport or City:

Astronomy

May. 17, 2019 Rise Set
Actual Time 5:45 AM PDT 7:45 PM PDT
Civil Twilight 5:18 AM PDT 8:12 PM PDT
Nautical Twilight 4:44 AM PDT 8:46 PM PDT
Astronomical Twilight 4:08 AM PDT 9:23 PM PDT
Moon 6:43 PM PDT (5/17) 5:12 AM PDT (5/17)
Length of Visible Light 14h 54m
Length of Day
13h 59m
Waxing Gibbous, 99% of the Moon is Illuminated
May 17
Waxing Gibbous
May 18
Full
May 26
Last Quarter
Jun 3
New
Jun 9
First Quarter

Hourly Weather History & Observations

Time (PDT) Temp. Dew Point Humidity Pressure Visibility Wind Dir Wind Speed Gust Speed Precip Events Conditions
12:00 AM 57.2 °F 45.9 °F 66% 29.98 in 10.0 mi Calm Calm - N/A   Overcast
12:20 AM 57.2 °F 45.9 °F 66% 29.98 in 10.0 mi West 3.5 mph - N/A   Overcast
12:40 AM 57.2 °F 46.2 °F 67% 29.99 in 10.0 mi Calm Calm - N/A   Overcast
1:00 AM 57.4 °F 45.7 °F 65% 29.98 in 10.0 mi Calm Calm - N/A   Overcast
1:20 AM 57.4 °F 45.7 °F 65% 29.98 in 10.0 mi Calm Calm - N/A   Overcast
1:40 AM 57.0 °F 46.0 °F 67% 29.97 in 10.0 mi Calm Calm - N/A   Overcast
2:00 AM 57.2 °F 45.5 °F 65% 29.97 in 10.0 mi Calm Calm - N/A   Mostly Cloudy
2:20 AM 56.8 °F 45.5 °F 66% 29.97 in 10.0 mi Calm Calm - N/A   Mostly Cloudy
2:40 AM 56.5 °F 45.0 °F 65% 29.97 in 10.0 mi SE 3.5 mph - N/A   Overcast
3:00 AM 56.1 °F 45.1 °F 67% 29.97 in 10.0 mi SSE 4.6 mph - N/A   Overcast
3:20 AM 55.9 °F 45.5 °F 68% 29.97 in 10.0 mi Calm Calm - N/A   Overcast
3:40 AM 55.6 °F 45.5 °F 69% 29.97 in 10.0 mi SSE 4.6 mph - N/A   Overcast
4:00 AM 55.0 °F 45.5 °F 70% 29.97 in 10.0 mi SE 3.5 mph - N/A   Mostly Cloudy
4:20 AM 54.9 °F 45.5 °F 71% 29.97 in 10.0 mi Calm Calm - N/A   Overcast
4:40 AM 54.5 °F 45.5 °F 72% 29.97 in 10.0 mi SE 3.5 mph - N/A   Overcast
5:00 AM 54.1 °F 45.3 °F 72% 29.97 in 10.0 mi Calm Calm - N/A   Mostly Cloudy
5:20 AM 53.6 °F 45.5 °F 74% 29.96 in 10.0 mi ENE 3.5 mph - N/A   Mostly Cloudy
5:40 AM 53.8 °F 46.4 °F 76% 29.97 in 10.0 mi Calm Calm - N/A   Overcast
7:45 AM 57.2 °F 46.4 °F 67% 30.01 in 7.0 mi Calm Calm - N/A   Mostly Cloudy
9:47 AM 59.0 °F 44.6 °F 59% 30.02 in 7.0 mi WSW 4.6 mph - N/A   Scattered Clouds
10:50 AM 64.4 °F 41.0 °F 42% 30.01 in 6.0 mi Calm Calm - N/A   Haze
11:50 AM 66.2 °F 39.2 °F 37% 30.01 in 6.0 mi WNW 3.5 mph - N/A   Haze
12:50 PM 68.0 °F 39.2 °F 35% 30.00 in 7.0 mi West 5.8 mph - N/A   Overcast
1:50 PM 69.8 °F 39.2 °F 33% 29.99 in 6.0 mi SW 5.8 mph - N/A   Haze
2:50 PM 71.6 °F 39.2 °F 31% 29.97 in 6.0 mi SW 6.9 mph - N/A   Haze
3:50 PM 71.6 °F 41.0 °F 33% 29.95 in 6.0 mi WNW 9.2 mph - N/A   Haze
4:50 PM 71.6 °F 41.0 °F 33% 29.96 in 6.0 mi WSW 11.5 mph 18.4 mph N/A   Haze
5:50 PM 68.0 °F 41.0 °F 37% 29.95 in 7.0 mi WSW 8.1 mph - N/A   Mostly Cloudy
6:50 PM 66.2 °F 39.2 °F 37% 29.96 in 7.0 mi WSW 12.7 mph - N/A   Mostly Cloudy
7:50 PM 62.6 °F 41.0 °F 45% 29.97 in 7.0 mi WSW 8.1 mph - N/A   Partly Cloudy
8:50 PM 59.0 °F 41.0 °F 51% 29.97 in 7.0 mi WSW 6.9 mph - N/A   Partly Cloudy
9:40 PM 59.7 °F 41.9 °F 52% 29.99 in 10.0 mi WSW 5.8 mph - N/A   Clear
10:00 PM 59.0 °F 42.3 °F 54% 30.00 in 10.0 mi West 3.5 mph - N/A   Clear
10:20 PM 59.0 °F 42.1 °F 53% 30.00 in 10.0 mi WSW 4.6 mph - N/A   Clear
10:40 PM 59.9 °F 42.3 °F 52% 30.00 in 10.0 mi SW 3.5 mph - N/A   Clear
11:00 PM 60.1 °F 41.9 °F 51% 30.00 in 10.0 mi Calm Calm - N/A   Scattered Clouds
11:20 PM 59.9 °F 42.1 °F 52% 30.00 in 10.0 mi Calm Calm - N/A   Scattered Clouds
11:40 PM 58.3 °F 43.7 °F 58% 29.99 in 10.0 mi East 5.8 mph - N/A   Clear